Flag Weather past 2 weeks in Sitka, Alaska, U.S.A.

Now
30 °F

Overcast.


Feels Like: 30 °F
Forecast: 23 / 37 °F
Wind: No wind

Location: Sitka Airport

Current Time: Nov 29, 2014 at 1:18:42 AM

Latest Report: Nov 29, 2014 at 12:53 AM


Visibility: 10 mi

Pressure: 30.12 "Hg

Humidity: 59%

Dew point: 17 °F

Location of SitkaLocation

Historic Weather in Sitka — Graph

°F

Sitka temperature yesterday

Maximum temperature yesterday: 32 °F (at 2:53 PM)
Minimum temperature yesterday: 25 °F (at 7:53 AM)
Average temperature yesterday: 28 °F

Past Weeks' High & Low Weather Summary

 TemperatureHumidityPressure
High52 °F (Nov 18, 4:53 AM)100% (Nov 17, 12:53 AM)30.39 "Hg (Nov 17, 12:53 AM)
Low25 °F (Nov 28, 7:53 AM)23% (Nov 28, 6:53 AM)29.00 "Hg (Nov 21, 6:53 AM)
Average39 °F82%29.89 "Hg
* Reported Nov 13 11:53 PM — Nov 28 11:53 PM, Sitka, Weather by CustomWeather, © 2014

Note: Actual official high and low records may vary slightly from our data, if they occured in-between our weather recording intervals... More about our weather records

Advertising

Sitka weather history for previous 24 hours

 ConditionsComfort  
Time TempWeatherWind HumidityBarometerVisibility
11:53 PM
Nov 28
29 °FOvercast.3 mph58%30.13 "Hg10 mi
10:53 PM28 °FOvercast.5 mph64%30.14 "Hg10 mi
9:53 PM27 °FOvercast.6 mph66%30.14 "Hg10 mi
8:53 PM26 °FPassing clouds.3 mph57%30.15 "Hg10 mi
7:53 PM25 °FPassing clouds.6 mph60%30.16 "Hg10 mi
6:53 PM25 °FPassing clouds.No wind60%30.17 "Hg10 mi
5:53 PM26 °FClear.5 mph55%30.17 "Hg10 mi
4:53 PM25 °FClear.5 mph53%30.17 "Hg10 mi
3:53 PM29 °FClear.3 mph43%30.17 "Hg10 mi
2:53 PM32 °FSunny.No wind33%30.17 "Hg10 mi
1:53 PM31 °FSunny.3 mph30%30.19 "Hg10 mi
12:53 PM30 °FSunny.6 mph30%30.19 "Hg10 mi
11:53 AM31 °FSunny.No wind29%30.21 "Hg10 mi
10:53 AM29 °FPassing clouds.3 mph31%30.21 "Hg10 mi
9:53 AM28 °FSunny.3 mph37%30.20 "Hg10 mi
8:53 AM25 °FSunny.No wind38%30.18 "Hg10 mi
7:53 AM25 °FClear.5 mph40%30.16 "Hg10 mi
6:53 AM28 °FClear.3 mph23%30.14 "Hg10 mi
5:53 AM27 °FClear.5 mph29%30.13 "Hg10 mi
4:53 AM27 °FClear.10 mph32%30.13 "Hg10 mi
3:53 AM26 °FClear.5 mph35%30.11 "Hg10 mi
2:53 AM29 °FClear.No wind26%30.09 "Hg10 mi
1:53 AM28 °FClear.5 mph31%30.08 "Hg10 mi
Weather by CustomWeather, © 2014

See weather overviewHow to use our weather pages